Tracking 35035 objects as of 16-Aug-2026
HD Live streaming from Space Station
objects crossing your sky now

NOAA 5

Track NOAA 5 now!
10-day predictions
NOAA 5 is classified as:


NORAD ID: 9057
Int'l Code: 1976-077A
Launch date: July 29, 1976
Source: United States (US)
Launch site: AIR FORCE WESTERN TEST RANGE (AFWTR)

Uplink (MHz):
Downlink (MHz):
Beacon (MHz):
Mode:
Call sign:
Status:

Your satellite tracking list
Your tracking list is empty




NASA's NSSDC Master Catalog

Two Line Element Set (TLE):
1 09057U 76077A   26228.20529506 -.00000041  00000-0  37714-4 0  9999
2 09057 102.3082 214.6523 0009354 229.8846 141.2475 12.37833316261901
Source of the keplerian elements: AFSPC